Location: Unspecified
(54.1780°N, 0.0000°E)
Time: 02:08:10
(UTC+00:00)

Transit 2A - Pass Details

Date: 23 June 2019
Orbit: 595 x 964 km, 66.7° (Epoch: 22 July)

Event Time Altitude Azimuth Distance (km) Brightness Sun altitude
Rises 03:19:14 0° 271° (W) 3,646 9.1 -1.6°
Reaches altitude 10° 03:22:13 10° 283° (WNW) 2,682 8.5 -1.3°
Maximum altitude 03:27:38 29° 342° (NNW) 1,624 8.1 -0.7°
Drops below altitude 10° 03:32:46 10° 42° (NE) 2,538 11.0 -0.2°
Sets 03:35:31 0° 53° (NE) 3,418 12.3 0.1°
